Weather reports worldwide

Advertisment
Leuchars, United Kingdom (3171): temperature & dewpoint: 21.06.2017 06:00:00 - 27.06.2017 06:00:00 (BST)Leuchars, United Kingdom (3171): temperature 5cm: 21.06.2017 06:00:00 - 27.06.2017 06:00:00 (BST)Leuchars, United Kingdom (3171): temperature -20cm & temperature -100cm: 21.06.2017 06:00:00 - 27.06.2017 06:00:00 (BST)Leuchars, United Kingdom (3171): wind speed & gusts: 21.06.2017 06:00:00 - 27.06.2017 06:00:00 (BST)Leuchars, United Kingdom (3171): wind direction: 21.06.2017 06:00:00 - 27.06.2017 06:00:00 (BST)Leuchars, United Kingdom (3171): reduced air pressure: 21.06.2017 06:00:00 - 27.06.2017 06:00:00 (BST)Leuchars, United Kingdom (3171): visibility: 21.06.2017 06:00:00 - 27.06.2017 06:00:00 (BST)Leuchars, United Kingdom (3171): sunshine duration: 21.06.2017 06:00:00 - 27.06.2017 06:00:00 (BST)Leuchars, United Kingdom (3171): precipitation: 21.06.2017 06:00:00 - 27.06.2017 06:00:00 (BST)
Date & Time tt [°C] td [°C] tt 5cm [°C] tt -20cm [°C] tt -100cm [°C] ff [km/h] ff [kn] fx [km/h] fx [kn] dd ppp [hPa] vv [km] sd [min] rr [mm]
27.06.2017 06:00:00 10,8 10,0 - - - 18 10 - - SSE 1011,7 6 0 3,8
27.06.2017 05:00:00 11,4 10,7 - - - 26 14 - - E 1011,8 7 0 2,0
27.06.2017 04:00:00 11,7 10,3 - - - 24 13 - - E 1012,2 15 0 0,0
27.06.2017 03:00:00 11,8 10,2 - - - 22 12 - - E 1012,8 24 0 0,0
27.06.2017 02:00:00 11,8 10,0 - - - 22 12 - - E 1013,3 10 0 0,0
27.06.2017 01:00:00 11,7 9,8 - - - 22 12 - - E 1013,6 10 - 0,0
27.06.2017 00:00:00 11,7 9,8 - - - 18 10 - - E 1014,1 10 0 0,0
26.06.2017 23:00:00 11,7 9,7 - - - 21 11 - - E 1014,2 10 0 0,0
26.06.2017 22:00:00 11,8 9,6 - - - 18 10 - - E 1014,5 10 0 0,0
26.06.2017 21:00:00 12,1 9,1 - - - 18 10 - - E 1014,4 10 0 0,0
26.06.2017 20:00:00 12,6 9,1 - - - 21 11 - - ESE 1014,5 10 0 0,0
26.06.2017 19:00:00 12,6 9,0 - - - 22 12 - - ESE 1014,4 10 0 0,0
26.06.2017 18:00:00 12,9 8,8 - - - 22 12 - - ESE 1014,4 30 0 0,0
26.06.2017 17:00:00 13,2 8,7 - - - 22 12 - - ESE 1014,4 10 0 0,0
26.06.2017 16:00:00 13,6 8,5 - - - 18 10 - - ESE 1014,4 10 0 0,0
26.06.2017 15:00:00 13,3 9,5 - - - 22 12 - - ESE 1014,4 10 0 0,0
26.06.2017 14:00:00 14,7 9,0 - - - 18 10 - - ESE 1014,3 10 0 0,0
26.06.2017 13:00:00 13,8 7,4 - - - 15 8 - - E 1014,2 10 0 0,0
26.06.2017 12:00:00 15,0 7,6 - - - 13 7 - - ESE 1014,0 10 36 0,0
26.06.2017 11:00:00 16,6 7,6 - - - 8 4 - - S 1013,7 10 42 0,0
26.06.2017 10:00:00 14,4 8,0 - 12,5 13,5 5 3 - - NW 1013,6 40 0 0,0
26.06.2017 09:00:00 12,9 7,3 - - - 11 6 - - WNW 1013,4 40 0 0,0
26.06.2017 08:00:00 11,9 7,9 - - - 11 6 - - W 1013,1 10 0 0,0
26.06.2017 07:00:00 10,8 8,0 - - - 11 6 - - W 1012,9 10 0 0,0
26.06.2017 06:00:00 9,8 8,0 - - - 13 7 - - WSW 1012,4 10 0 0,0
26.06.2017 05:00:00 9,4 7,2 - - - 8 4 - - WSW 1012,2 10 0 0,0
26.06.2017 04:00:00 9,2 7,6 - - - 15 8 - - WSW 1012,2 10 0 0,0
26.06.2017 03:00:00 8,2 6,7 - - - 13 7 - - WSW 1012,0 10 0 0,0
26.06.2017 02:00:00 9,5 7,3 - - - 8 4 - - WNW 1011,7 10 0 0,0
26.06.2017 01:00:00 8,6 6,9 - - - 15 8 - - WSW 1011,5 10 - 0,0
26.06.2017 00:00:00 10,0 7,8 - - - 8 4 - - W 1011,1 10 0 0,0
25.06.2017 23:00:00 9,3 7,1 - - - 9 5 - - W 1010,5 10 0 0,0
25.06.2017 22:00:00 12,0 7,3 - - - 13 7 - - W 1009,9 10 18 0,0
25.06.2017 21:00:00 12,9 7,7 - - - 13 7 - - W 1009,1 10 0 0,0
25.06.2017 20:00:00 14,8 7,8 - - - 15 8 - - NW 1008,5 10 36 0,0
25.06.2017 19:00:00 14,1 9,2 - - - 15 8 - - WNW 1007,7 10 6 0,0
25.06.2017 18:00:00 12,6 9,9 - - - 15 8 50 27 WNW 1007,5 10 12 1,2
25.06.2017 17:00:00 15,9 9,8 - - - 34 18 48 26 W 1006,6 10 42 0,0
25.06.2017 16:00:00 15,3 8,5 - - - 31 17 50 27 W 1006,3 10 24 0,0
25.06.2017 15:00:00 14,6 9,3 - - - 34 18 - - W 1006,1 10 12 0,8
25.06.2017 14:00:00 12,8 10,2 - - - 26 14 - - WNW 1006,2 10 0 2,0
25.06.2017 13:00:00 14,9 7,9 - - - 41 22 55 30 W 1005,6 10 18 0,0
25.06.2017 12:00:00 15,6 7,3 - - - 34 18 55 30 W 1005,3 10 30 0,0
25.06.2017 11:00:00 14,6 7,6 - - - 34 18 52 28 W 1005,1 10 0 0,0
25.06.2017 10:00:00 14,1 6,8 - 12,7 13,7 37 20 52 28 W 1004,8 10 54 0,0
25.06.2017 09:00:00 13,9 6,9 - - - 31 17 46 25 W 1004,7 10 42 0,0
25.06.2017 08:00:00 13,1 6,7 - - - 31 17 - - W 1004,4 10 24 0,0
25.06.2017 07:00:00 11,0 6,4 - - - 29 16 - - W 1004,2 10 6 0,0
25.06.2017 06:00:00 9,4 5,4 - - - 21 11 - - W 1004,1 40 0 0,0
25.06.2017 05:00:00 9,0 6,0 - - - 24 13 - - WSW 1003,7 10 0 0,0
25.06.2017 04:00:00 8,8 5,8 - - - 24 13 - - WSW 1003,8 10 0 0,0
25.06.2017 03:00:00 8,8 5,7 - - - 22 12 - - W 1003,8 10 0 0,0
25.06.2017 02:00:00 9,7 6,0 - - - 34 18 - - W 1003,3 10 0 0,0
25.06.2017 01:00:00 9,7 5,5 - - - 31 17 - - W 1003,3 10 - 0,0
25.06.2017 00:00:00 10,0 6,1 - - - 26 14 - - W 1003,7 10 0 0,0
24.06.2017 23:00:00 11,5 6,2 - - - 31 17 48 26 W 1003,5 10 0 0,0
24.06.2017 22:00:00 12,5 6,5 - - - 28 15 54 29 W 1003,8 10 0 0,0
24.06.2017 21:00:00 13,0 6,5 - - - 41 22 61 33 W 1002,8 10 0 0,0
24.06.2017 20:00:00 13,1 7,3 - - - 39 21 67 36 W 1002,8 10 6 0,0
24.06.2017 19:00:00 14,4 6,7 - - - 42 23 70 38 W 1002,8 10 18 0,0
24.06.2017 18:00:00 14,7 6,5 - - - 42 23 65 35 W 1003,0 10 36 0,0
24.06.2017 17:00:00 16,0 7,2 - - - 48 26 70 38 W 1003,3 10 30 0,0
24.06.2017 16:00:00 16,8 7,4 - - - 35 19 63 34 W 1003,6 45 48 0,0
24.06.2017 15:00:00 17,5 7,9 - - - 41 22 61 33 W 1003,8 45 24 0,0
24.06.2017 14:00:00 15,6 6,3 - - - 42 23 67 36 W 1004,1 45 18 0,0
24.06.2017 13:00:00 15,5 6,2 - - - 39 21 59 32 W 1004,3 10 12 0,0
24.06.2017 12:00:00 15,3 6,5 - - - 31 17 57 31 W 1004,5 10 18 0,0
24.06.2017 11:00:00 13,9 7,1 - - - 39 21 61 33 WSW 1004,8 10 18 0,0
24.06.2017 10:00:00 13,7 6,8 - 12,9 13,7 37 20 52 28 W 1004,8 10 6 0,0
24.06.2017 09:00:00 13,6 6,6 - - - 35 19 54 29 WSW 1004,8 10 18 0,0
24.06.2017 08:00:00 13,1 7,4 - - - 35 19 50 27 W 1005,0 10 36 0,0
24.06.2017 07:00:00 12,8 8,1 - - - 26 14 - - WSW 1005,2 10 60 0,0
24.06.2017 06:00:00 11,6 7,5 - - - 31 17 - - WSW 1005,1 10 12 0,0
24.06.2017 05:00:00 11,4 7,1 - - - 26 14 - - WSW 1005,5 10 0 0,0
24.06.2017 04:00:00 11,5 7,2 - - - 29 16 - - WSW 1005,7 10 0 0,0
24.06.2017 03:00:00 11,4 7,3 - - - 16 9 - - W 1006,3 10 0 0,0
24.06.2017 02:00:00 11,0 7,4 - - - 16 9 - - W 1006,6 10 0 0,0
24.06.2017 01:00:00 11,0 7,0 - - - 24 13 - - W 1006,6 10 - 0,0
24.06.2017 00:00:00 11,2 6,3 - - - 9 5 - - WSW 1007,0 10 0 0,0
23.06.2017 23:00:00 11,6 6,4 - - - 21 11 - - WSW 1007,2 10 0 0,0
23.06.2017 22:00:00 11,9 6,0 - - - 21 11 - - WSW 1007,2 10 12 0,0
23.06.2017 21:00:00 14,3 5,9 - - - 26 14 - - W 1007,0 10 60 0,0
23.06.2017 20:00:00 16,0 7,1 - - - 35 19 46 25 W 1006,7 10 60 0,0
23.06.2017 19:00:00 17,0 7,3 - - - 31 17 50 27 W 1006,5 10 48 0,0
23.06.2017 18:00:00 17,8 7,6 - - - 39 21 50 27 W 1006,0 10 48 0,0
23.06.2017 17:00:00 19,1 7,5 - - - 34 18 50 27 WSW 1005,9 10 54 0,0
23.06.2017 16:00:00 19,0 8,5 - - - 35 19 57 31 W 1005,6 10 60 0,0
23.06.2017 15:00:00 18,6 9,3 - - - 34 18 52 28 W 1005,3 10 54 0,0
23.06.2017 14:00:00 18,8 9,9 - - - 39 21 67 36 W 1004,9 10 48 0,0
23.06.2017 13:00:00 17,5 9,9 - - - 35 19 59 32 W 1004,7 10 42 0,0
23.06.2017 12:00:00 17,5 11,1 - - - 37 20 55 30 W 1003,7 10 18 0,0
23.06.2017 11:00:00 16,5 13,6 - - - 26 14 48 26 WNW 1003,3 10 6 0,0
23.06.2017 10:00:00 15,2 13,9 - 13,0 13,5 18 10 48 26 WSW 1003,3 10 0 0,0
23.06.2017 09:00:00 15,0 13,4 - - - 35 19 48 26 WSW 1002,7 4,5 6 0,2
23.06.2017 08:00:00 14,2 13,3 - - - 29 16 - - SW 1003,0 6 6 0,0
23.06.2017 07:00:00 13,5 12,2 - - - 29 16 46 25 WSW 1003,2 6 0 0,0
23.06.2017 06:00:00 13,6 11,7 - - - 26 14 - - WSW 1003,6 29 0 0,0
23.06.2017 05:00:00 13,0 11,4 - - - 28 15 - - WSW 1003,7 10 0 0,0
23.06.2017 04:00:00 12,9 11,3 - - - 24 13 - - WSW 1004,7 10 0 0,2
23.06.2017 03:00:00 13,3 10,7 - - - 26 14 - - WSW 1005,6 10 0 0,2
23.06.2017 02:00:00 13,3 10,6 - - - 22 12 - - WSW 1006,2 10 0 0,0
23.06.2017 01:00:00 13,2 11,0 - - - 24 13 - - WSW 1007,1 10 - 0,0
23.06.2017 00:00:00 13,7 10,5 - - - 18 10 - - WSW 1007,6 10 0 0,0
22.06.2017 23:00:00 13,7 10,3 - - - 21 11 - - W 1007,9 10 0 0,0
22.06.2017 22:00:00 14,6 10,4 - - - 26 14 - - WSW 1008,1 10 0 0,0
22.06.2017 21:00:00 15,7 11,3 - - - 21 11 - - WSW 1008,1 10 0 0,0
22.06.2017 20:00:00 16,8 12,0 - - - 16 9 - - W 1008,2 10 0 0,0
22.06.2017 19:00:00 15,9 13,3 - - - 9 5 - - SSE 1008,3 22 0 0,0
22.06.2017 18:00:00 15,9 13,0 - - - 15 8 - - SE 1008,4 22 0 0,0
22.06.2017 17:00:00 14,5 12,2 - - - 21 11 - - E 1008,6 10 0 0,0
22.06.2017 16:00:00 14,4 12,2 - - - 16 9 - - ESE 1009,1 10 0 0,0
22.06.2017 15:00:00 14,5 12,2 - - - 18 10 - - ESE 1009,3 10 30 0,0
22.06.2017 14:00:00 14,8 12,4 - - - 16 9 - - ESE 1009,4 10 6 0,0
22.06.2017 13:00:00 14,6 13,0 - - - 22 12 - - ESE 1008,9 6 6 0,0
22.06.2017 12:00:00 15,3 13,6 - - - 21 11 - - SE 1008,8 6 0 0,0
22.06.2017 11:00:00 15,0 13,7 - - - 18 10 - - SE 1008,5 8 0 0,0
22.06.2017 10:00:00 17,4 13,0 - 13,0 13,5 2 1 - - NW 1007,8 10 0 0,0
22.06.2017 09:00:00 17,1 14,2 - - - 4 2 - - NNW 1007,1 10 0 0,0
22.06.2017 08:00:00 16,5 13,6 - - - 11 6 - - NW 1006,8 10 0 0,0
22.06.2017 07:00:00 16,2 15,1 - - - 13 7 - - W 1006,7 10 0 0,0
22.06.2017 06:00:00 15,8 15,4 - - - 9 5 - - W 1006,6 9 0 0,0
22.06.2017 05:00:00 15,8 15,5 - - - 8 4 - - W 1006,6 6 0 0,0
22.06.2017 04:00:00 15,3 15,1 - - - 13 7 - - W 1006,6 6 0 0,0
22.06.2017 03:00:00 14,9 14,8 - - - 2 1 - - SSW 1006,6 4,7 0 0,0
22.06.2017 02:00:00 14,3 14,2 - - - 5 3 - - NW 1007,2 4,4 0 0,0
22.06.2017 01:00:00 13,8 13,7 - - - 4 2 - - NNW 1007,4 2,2 - 0,0
22.06.2017 00:00:00 13,7 13,5 - - - 5 3 - - NNE 1007,9 4,0 0 0,0
21.06.2017 23:00:00 13,8 13,4 - - - 5 3 - - NE 1008,4 5 0 0,0
21.06.2017 22:00:00 14,2 13,8 - - - 9 5 - - ESE 1008,5 5 0 0,4
21.06.2017 21:00:00 14,6 14,1 - - - 13 7 - - SSE 1009,5 2,2 0 1,0
21.06.2017 20:00:00 14,8 14,4 - - - 8 4 - - E 1009,7 6 0 1,4
21.06.2017 19:00:00 15,6 14,7 - - - 5 3 - - N 1010,3 6 0 -
21.06.2017 18:00:00 15,4 14,5 - - - 8 4 - - NE 1010,8 10 0 0,0
21.06.2017 17:00:00 16,2 14,6 - - - 9 5 - - ENE 1010,7 10 0 0,0
21.06.2017 16:00:00 16,1 14,8 - - - 9 5 - - NNE 1011,7 10 0 0,6
21.06.2017 15:00:00 16,6 13,5 - - - 4 2 - - NE 1012,5 10 0 0,0
21.06.2017 14:00:00 15,6 13,3 - - - 9 5 - - E 1012,6 10 0 0,0
21.06.2017 13:00:00 15,0 12,9 - - - 4 2 - - ESE 1013,8 10 0 0,2
21.06.2017 12:00:00 15,1 11,7 - - - 13 7 - - ESE 1013,5 10 0 0,0
21.06.2017 11:00:00 15,5 11,2 - - - 4 2 - - ESE 1013,8 10 0 0,0
21.06.2017 10:00:00 15,1 11,6 15,1 12,9 13,4 2 1 - - SE 1014,3 10 0 0,0
21.06.2017 09:00:00 14,0 11,3 - - - 9 5 - - E 1014,7 10 0 0,0
21.06.2017 08:00:00 14,0 11,3 - - - 9 5 - - SE 1015,4 10 0 0,0
21.06.2017 07:00:00 13,6 11,9 - - - 9 5 - - ESE 1016,1 10 0 0,0
21.06.2017 06:00:00 12,3 11,7 - - - 9 5 - - NE 1016,9 10 0 0,0

tt = temperature
td = dewpoint
tt 5cm = temperature 5cm
tt -20cm = temperature -20cm
tt -100cm = temperature -100cm
ff = wind speed
fx = gusts
dd = wind direction
ppp = reduced air pressure
vv = visibility
sd = sunshine duration
rr = precipitation

Next stations